Wind_Speed
46 46 46 44 41 40 40 41 42 42 42 42 41 40 40 40 39 39 39 39 38 38 38 38 39 39 40 40 41 41 41 41 41 41 41 41 41 41 41 42 42 43 43 43 43 43 43 43 43 44 45 46 45 44 46 47 47 47 47 48 48 49 51 53 55 58 60 61 64 68 69 70 72 74 75 76 77 79 80 81 82 83 85 84 79
44 43 41 39 39 39 39 39 39 39 40 40 40 40 39 38 38 37 37 37 37 37 38 39 40 40 41 42 42 42 41 41 41 41 41 41 41 41 41 42 43 43 43 43 43 43 42 42 43 45 47 49 48 47 48 48 48 48 49 49 49 51 53 54 56 58 60 62 65 67 69 70 72 74 76 77 78 80 81 82 83 84 85 85 80
41 38 37 37 37 37 37 37 37 38 39 39 39 38 38 37 37 37 37 38 38 39 39 40 41 42 42 43 42 42 42 42 42 41 41 41 41 41 41 42 42 42 42 42 42 42 41 42 44 47 49 50 51 50 50 50 50 50 50 49 50 52 54 55 57 59 60 62 65 67 68 70 73 75 77 78 79 80 81 82 83 85 86 85 81
37 35 35 36 35 34 35 35 36 36 38 38 38 37 37 37 37 37 38 39 40 40 41 42 42 43 43 43 43 42 42 42 41 41 41 41 41 40 41 42 42 42 42 42 42 42 43 44 46 48 50 50 52 52 51 51 52 52 51 51 52 54 55 56 58 59 60 62 66 68 69 71 74 76 77 79 80 80 81 82 83 86 87 86 82
34 34 35 35 34 34 34 34 35 35 36 37 37 37 38 38 38 38 39 40 41 42 42 43 43 43 43 43 43 42 42 41 41 40 40 40 40 40 41 42 43 43 42 42 43 44 45 47 48 50 51 51 53 53 52 52 54 53 52 53 54 55 55 56 58 60 62 64 66 69 71 72 74 76 77 79 81 82 82 82 83 85 88 88 84
33 35 36 35 34 34 34 34 35 36 37 38 38 39 39 39 39 39 40 41 42 43 43 43 44 44 44 43 43 42 41 41 40 39 39 39 39 40 41 42 43 43 43 44 45 45 46 47 49 51 52 53 54 54 53 54 54 54 54 55 55 55 55 57 59 61 63 66 68 70 71 73 75 76 77 78 80 81 83 83 83 85 87 89 87
35 37 37 35 34 34 35 36 37 39 39 40 39 39 39 39 39 40 40 41 42 43 43 44 44 44 43 43 42 41 41 40 39 38 38 38 39 40 41 43 43 44 44 45 46 46 46 48 50 52 54 55 55 55 54 53 53 53 54 55 56 56 57 58 60 61 64 67 69 70 72 73 75 76 77 78 79 80 81 82 84 85 86 87 87
39 40 38 35 34 35 36 38 39 39 39 38 39 39 39 39 39 40 40 41 42 43 43 43 43 43 42 42 41 41 40 39 38 38 38 38 39 41 42 43 44 44 45 46 46 47 48 49 51 54 55 55 55 55 53 53 53 53 55 57 58 57 58 60 61 64 66 68 69 71 72 74 75 76 77 78 79 80 80 81 82 84 85 86 85
42 41 36 34 35 36 37 36 35 35 35 36 37 37 37 37 37 38 40 41 41 42 42 42 42 42 41 41 40 40 39 39 38 38 38 38 40 42 43 44 44 45 45 46 47 48 49 50 52 55 55 54 53 53 52 52 52 54 56 60 61 59 60 63 65 66 67 68 69 71 72 74 75 77 77 78 79 79 80 81 81 83 84 85 84
43 40 36 35 36 36 36 35 33 33 34 35 36 35 35 35 36 38 39 40 40 40 41 41 40 40 40 40 39 39 39 39 39 39 38 39 40 42 43 44 45 45 46 47 48 49 50 51 53 55 53 52 51 52 52 51 52 55 58 62 65 65 64 65 67 67 67 68 70 71 72 74 75 76 78 78 79 79 80 80 81 82 83 84 83
42 40 38 38 37 36 36 36 36 37 37 37 36 36 35 36 37 38 39 39 39 39 39 39 39 39 40 40 39 39 39 40 40 39 39 39 40 42 44 45 46 46 46 47 49 51 51 52 53 53 52 52 53 55 53 52 54 56 59 62 66 67 67 66 66 67 68 69 71 72 73 74 75 76 78 78 79 79 79 80 80 81 82 82 81
42 42 42 40 38 38 39 40 40 39 39 38 37 37 37 36 36 37 38 38 38 38 38 38 38 39 39 40 40 40 40 40 40 40 39 40 41 43 45 45 46 47 48 49 51 52 52 52 52 53 53 54 57 60 57 55 56 58 60 63 65 66 67 66 66 67 69 70 71 72 73 74 75 76 77 78 79 79 79 79 80 81 81 81 79
44 43 43 41 41 42 43 42 41 40 39 38 37 37 37 37 37 38 38 38 38 37 37 37 38 39 40 40 40 40 40 40 40 40 40 40 41 43 44 45 46 47 49 50 51 52 52 52 52 53 54 55 59 62 60 58 60 61 62 64 64 65 66 66 67 68 69 70 72 73 74 74 75 75 76 77 78 78 79 79 80 81 81 81 79
43 42 42 42 42 43 43 41 40 40 39 38 37 38 38 38 39 39 38 38 38 37 37 37 38 40 41 41 41 40 40 40 41 41 41 41 42 43 45 47 48 49 49 49 50 51 52 52 52 53 54 55 59 62 62 62 63 63 63 63 64 64 65 66 67 68 69 71 72 73 74 74 74 75 76 76 77 77 78 79 80 82 82 81 79
44 42 42 42 42 42 41 41 40 40 38 38 38 39 39 40 41 41 40 39 38 37 37 38 39 40 40 40 40 40 41 41 41 42 42 42 44 46 47 49 50 50 50 49 50 51 53 54 54 55 55 56 58 61 62 62 62 62 63 63 64 65 65 66 68 69 69 71 72 73 74 74 74 75 75 76 76 77 77 78 79 81 81 81 80
44 43 42 41 42 42 42 42 41 40 39 39 40 40 41 42 43 41 39 37 35 36 37 38 39 40 40 40 40 41 42 42 42 42 42 43 45 47 49 50 50 51 52 52 53 53 54 55 55 56 56 56 57 59 60 61 61 62 63 64 64 65 66 66 68 69 70 71 72 73 73 74 74 74 75 76 76 76 77 78 79 80 80 81 80
44 43 42 41 43 43 43 42 41 40 41 41 41 42 41 40 39 36 34 33 34 37 40 40 41 41 41 42 42 43 43 42 41 41 42 44 45 47 49 51 52 52 53 54 55 55 55 56 56 56 56 57 57 58 60 61 61 62 63 64 64 65 66 66 68 69 70 71 72 73 73 73 74 74 75 75 76 76 76 77 79 80 80 80 79
42 41 41 41 43 43 43 43 42 42 42 42 40 39 38 38 39 38 38 38 41 42 43 42 43 43 43 43 43 43 43 42 41 40 41 43 45 47 49 51 52 53 54 55 56 56 56 56 56 56 56 56 57 58 60 61 61 62 63 63 64 65 65 66 67 68 69 70 71 72 73 74 74 74 74 75 75 75 76 77 78 80 80 79 77
39 39 39 40 42 43 43 43 43 42 42 41 40 39 40 41 43 44 45 45 46 46 45 44 44 45 44 44 43 43 43 43 41 40 41 43 45 47 49 51 52 52 54 55 56 56 56 56 56 55 55 56 57 58 60 61 61 61 62 63 64 64 65 66 67 68 69 70 71 72 73 74 75 75 75 75 75 75 75 76 77 79 81 80 77
39 40 40 41 42 43 44 45 45 44 43 44 45 46 45 44 43 44 46 47 47 47 46 45 45 45 45 44 44 43 43 43 41 41 41 43 45 47 49 51 52 53 54 56 56 56 56 56 56 56 56 57 57 58 59 60 60 61 62 63 63 64 65 66 67 68 69 70 71 72 73 74 75 76 76 76 75 75 75 76 77 78 80 80 77
41 41 42 43 44 45 46 46 45 45 46 47 49 49 47 45 46 46 47 48 49 48 47 46 46 46 45 44 44 43 43 43 42 42 42 43 45 47 49 51 52 53 54 56 57 57 58 58 57 57 57 57 58 58 59 59 60 61 62 62 63 64 65 66 67 68 69 70 71 72 73 75 75 76 76 76 76 76 76 76 77 78 79 78 76
43 42 43 45 47 47 46 44 43 45 48 49 49 48 48 48 48 48 48 49 49 48 47 47 46 46 46 45 45 44 43 43 43 43 43 44 45 47 49 50 50 51 53 55 56 57 57 57 57 57 57 58 59 60 60 60 61 61 62 63 64 65 65 66 67 68 69 70 71 73 74 75 76 76 77 77 77 77 77 77 77 79 79 77 74
44 43 45 47 47 44 42 43 45 48 49 49 49 49 49 49 49 49 49 49 49 49 48 47 47 47 47 46 45 44 43 43 43 43 43 44 45 47 48 48 48 49 51 53 54 55 56 56 57 57 58 59 60 61 62 62 63 64 64 65 66 66 67 67 68 69 70 71 72 73 74 75 76 77 77 78 78 78 78 78 79 80 79 77 73
45 46 47 49 47 44 44 46 48 50 50 50 50 51 51 50 50 50 50 50 50 50 49 48 48 48 47 47 47 45 45 44 44 44 44 43 44 46 47 47 48 48 50 51 52 53 54 56 56 56 57 58 59 61 62 62 64 65 65 66 67 68 68 69 69 70 70 71 73 74 75 76 77 78 78 78 79 79 79 80 81 81 80 76 73
45 47 47 46 45 46 48 50 50 51 51 51 52 52 52 51 51 51 51 51 51 50 49 49 49 48 48 49 48 47 46 46 45 45 44 44 45 46 48 48 48 49 49 50 51 52 54 56 56 56 56 57 58 60 61 62 63 64 65 66 67 68 69 69 70 70 71 72 73 74 75 76 77 78 78 79 79 80 80 81 82 82 79 76 73
43 45 44 43 42 44 47 48 49 51 52 53 54 54 53 52 52 52 52 52 51 51 50 49 49 48 49 50 50 49 48 48 47 47 47 47 48 49 50 49 49 49 50 50 51 52 55 56 57 57 58 59 60 61 62 63 64 64 65 66 67 68 68 69 70 70 71 72 74 75 75 76 77 78 79 80 80 80 81 82 82 81 79 75 74
39 41 43 43 42 44 47 49 51 53 55 55 55 54 53 53 53 52 52 52 52 51 50 49 49 49 50 51 51 50 50 50 50 49 49 50 51 52 52 51 49 50 51 52 52 53 56 58 59 60 60 61 62 62 63 64 66 66 67 67 67 68 69 69 70 71 71 73 74 75 76 77 78 78 79 80 80 81 82 83 82 80 77 76 74
40 41 44 45 45 46 49 52 54 56 56 55 54 53 53 53 52 52 52 52 51 51 50 50 50 51 52 52 52 52 52 52 51 51 51 52 53 54 54 52 52 53 54 54 55 57 59 61 62 62 63 63 64 64 64 65 67 68 68 68 68 68 69 69 70 71 71 73 75 76 77 78 79 79 80 81 81 82 83 82 80 78 77 76 75
43 44 46 47 48 49 51 53 55 55 54 54 54 53 53 53 53 53 53 52 51 51 50 50 52 52 53 53 53 53 54 53 53 53 54 54 55 56 55 54 55 57 58 57 58 60 62 64 65 65 66 66 66 66 66 66 67 68 69 69 68 68 69 69 70 71 72 74 75 77 78 79 79 80 81 82 83 83 83 81 78 77 77 77 74
46 47 48 48 49 50 52 53 54 54 54 54 53 53 54 54 54 54 54 53 52 51 52 52 53 54 54 54 55 55 55 55 55 55 56 57 58 58 57 56 57 60 60 60 61 63 65 66 67 68 68 69 68 68 68 68 68 69 69 69 69 69 69 69 70 72 73 75 77 78 79 79 80 81 83 83 84 84 82 79 78 77 76 74 70
51 50 50 49 49 50 51 52 52 53 53 53 53 53 54 54 54 54 54 53 53 54 54 54 54 55 55 56 56 57 57 57 57 57 57 59 60 60 60 60 61 62 63 63 64 65 67 68 69 70 71 71 70 69 69 69 70 69 69 69 69 69 69 69 71 72 75 77 78 79 80 80 81 83 84 84 84 83 81 79 78 77 74 69 63
54 52 51 50 50 51 51 51 51 51 52 53 54 54 54 54 54 54 54 54 55 56 56 55 55 56 56 57 58 59 59 58 58 59 59 60 61 62 62 62 63 64 65 65 66 67 69 70 72 72 73 72 71 71 70 70 70 70 69 69 69 69 70 71 72 74 76 78 80 81 81 82 83 84 85 84 82 81 80 79 77 74 68 62 57
56 54 52 51 51 51 50 50 50 51 52 53 54 54 55 55 55 55 55 55 56 56 56 56 56 57 58 58 59 60 60 60 61 61 60 61 63 64 64 64 65 66 66 67 68 69 71 72 74 74 74 74 73 72 71 71 70 70 69 69 70 71 72 73 74 76 78 80 81 82 83 84 85 85 83 82 80 79 79 77 73 68 62 57 53
55 52 51 51 51 51 50 50 50 51 52 53 54 55 55 55 56 57 57 56 56 56 57 57 58 59 60 61 61 61 62 62 62 62 62 63 64 65 65 66 67 67 68 69 70 72 73 74 75 76 76 75 73 72 72 71 70 69 69 70 72 73 74 76 77 79 80 82 83 84 85 85 84 83 81 80 79 77 75 71 67 62 58 54 51
52 50 50 50 50 50 50 50 49 50 50 51 53 54 55 56 58 59 60 59 58 59 60 60 61 62 63 62 62 62 63 63 63 64 64 65 66 66 67 68 69 69 70 71 73 74 76 76 77 77 76 75 73 72 71 71 70 70 71 72 74 76 77 79 80 81 83 84 85 85 85 84 82 81 79 77 75 71 68 65 61 58 56 52 50
49 47 47 47 47 48 49 49 49 50 51 51 52 53 54 56 59 61 61 61 60 61 62 62 63 63 63 62 62 62 63 63 64 65 66 66 66 67 69 70 71 71 73 74 75 77 78 79 79 78 76 74 73 71 71 70 71 72 73 74 76 79 80 81 83 84 85 86 86 85 83 82 80 77 74 71 68 65 62 60 58 56 55 52 49
44 42 42 44 45 47 48 49 50 51 51 52 53 54 54 57 61 62 62 61 61 62 62 62 62 62 62 62 62 63 63 64 65 66 66 67 68 69 70 72 73 74 75 76 78 79 80 80 78 76 75 73 72 71 71 71 73 74 76 77 79 81 82 84 85 86 86 86 85 83 80 77 74 71 67 65 63 61 59 58 56 55 54 52 50
43 43 44 46 48 50 51 52 53 53 53 54 54 55 56 59 62 64 64 63 64 64 63 62 62 62 62 63 64 64 64 65 66 67 68 68 70 71 72 74 75 76 77 79 80 81 80 78 76 74 72 71 71 71 72 73 75 77 78 80 82 84 85 86 86 85 84 83 80 77 74 71 69 66 63 61 60 59 57 56 54 53 53 51 50
47 48 50 51 53 55 56 57 58 58 57 57 56 56 57 59 61 63 63 64 64 64 63 63 64 64 64 65 65 65 66 66 67 68 69 71 72 73 74 75 77 78 81 82 82 81 79 77 74 72 71 70 70 71 73 75 77 79 81 82 84 86 86 86 85 82 80 77 74 72 69 67 65 63 60 58 57 55 54 53 52 51 51 50 50
54 55 56 58 59 60 61 61 62 62 61 61 61 60 60 61 62 62 63 64 64 65 65 66 66 66 66 67 67 67 67 68 69 70 72 73 74 75 76 77 79 81 82 83 81 79 77 74 72 70 70 71 72 74 75 77 79 81 83 84 85 86 86 84 81 77 74 72 70 68 66 64 61 59 57 55 53 52 51 50 50 49 49 49 49
60 61 62 64 64 65 66 66 65 66 66 66 66 66 65 65 65 65 65 65 66 66 67 67 67 68 68 68 68 68 69 70 71 72 73 74 75 77 78 80 82 82 82 81 78 76 74 72 71 71 71 73 74 76 78 80 82 84 85 85 85 84 82 79 76 73 71 69 67 65 62 59 57 55 53 51 49 48 47 47 47 47 47 47 46
64 65 67 69 70 70 70 69 69 69 70 70 70 68 67 67 67 67 67 67 67 67 68 68 68 68 69 69 69 69 69 70 71 73 75 76 78 80 82 82 82 81 79 77 74 72 71 71 71 72 74 75 77 79 81 83 84 85 85 84 82 79 76 73 71 69 67 65 63 60 57 55 53 51 49 48 46 45 44 45 45 45 45 44 44
69 71 72 73 73 73 72 72 72 72 72 72 70 69 67 66 65 65 66 66 67 67 68 68 68 68 68 69 69 69 70 72 74 76 78 80 82 82 82 81 79 77 74 72 70 69 70 71 73 74 76 77 79 81 83 84 85 84 83 80 77 72 69 67 66 64 63 60 58 56 54 52 49 47 46 45 43 42 42 42 43 43 43 42 41
72 73 74 74 75 75 75 76 76 75 74 73 71 69 67 65 64 64 64 65 66 67 67 68 69 69 70 71 72 73 75 78 79 81 81 82 81 80 78 75 73 71 70 69 69 70 71 73 74 76 78 79 81 82 83 84 83 81 78 74 70 66 64 63 62 60 58 56 54 53 51 49 47 45 43 42 42 41 41 41 41 41 40 40 40
74 74 75 75 76 77 77 77 77 77 75 73 71 69 67 66 65 65 66 66 67 68 70 71 72 74 76 77 79 80 81 82 82 81 80 79 76 74 71 69 68 68 68 69 70 72 73 75 77 78 80 81 82 83 83 82 79 76 72 68 64 61 60 59 58 57 55 53 52 50 49 47 46 44 43 41 41 40 40 40 40 39 39 39 39
76 76 76 76 76 77 77 78 78 77 76 75 73 71 70 69 69 69 70 71 73 74 76 78 80 82 83 84 84 83 82 81 79 77 74 72 69 67 66 66 66 68 69 71 72 74 76 78 79 80 82 82 82 82 80 76 73 69 67 64 61 58 56 55 54 53 52 50 49 48 47 46 45 44 43 42 41 40 39 39 39 39 39 39 39
78 78 78 79 79 79 80 80 81 81 80 80 79 78 77 77 77 78 79 80 81 83 84 85 86 85 84 82 81 78 76 73 71 69 67 66 65 65 65 66 67 69 71 72 74 76 78 80 81 82 83 82 80 78 74 69 66 64 62 59 56 55 54 52 51 50 48 47 47 46 46 46 45 44 43 42 41 40 39 39 39 39 39 39 39
82 83 84 85 85 86 86 86 85 84 83 82 82 82 83 83 84 85 85 86 86 86 85 84 82 79 76 74 71 68 67 65 64 64 64 65 65 66 67 68 69 71 73 74 76 78 80 81 82 82 81 79 76 72 67 64 61 59 57 54 53 53 52 50 49 48 47 45 45 44 44 44 44 43 43 42 41 40 40 39 39 39 39 39 39
88 89 91 92 92 92 91 89 87 85 84 84 84 85 86 86 86 86 85 84 83 80 77 74 71 68 66 64 62 61 61 61 61 63 64 66 67 68 69 70 72 73 75 77 78 80 81 81 81 80 78 74 70 66 63 60 57 55 52 51 51 51 50 49 48 47 46 45 44 44 43 42 42 42 41 41 40 40 40 40 39 39 40 40 40
91 92 93 93 93 92 90 89 87 86 85 85 85 85 84 83 82 80 78 76 73 69 66 63 62 60 59 59 59 59 60 61 62 64 66 68 69 71 72 73 74 76 78 79 80 80 80 79 78 76 73 69 65 62 59 56 53 51 50 50 49 49 49 48 48 47 47 46 46 44 44 43 42 41 40 39 39 39 38 38 38 38 38 39 38
91 90 90 89 88 87 87 87 87 86 85 84 82 80 77 74 72 69 67 64 62 60 58 58 58 58 59 59 60 61 62 63 65 66 68 70 72 73 74 76 77 78 79 80 80 79 77 75 73 70 67 64 61 58 55 52 50 49 49 49 49 49 49 48 48 48 48 47 47 46 45 45 44 43 42 41 39 39 38 37 37 37 37 37 37
Wind_Direction
250 251 253 258 262 264 266 266 266 267 269 271 273 275 276 277 279 281 283 284 286 288 289 290 291 292 293 293 293 294 295 296 297 298 298 298 299 300 300 301 301 300 300 299 298 298 298 297 297 297 297 298 301 302 303 306 310 314 317 318 319 320 322 324 326 328 329 330 331 332 331 331 332 333 334 335 335 335 335 336 337 337 339 339 337
250 253 256 259 261 263 265 266 266 268 269 271 273 275 276 278 280 282 284 286 288 289 290 291 292 293 293 293 294 295 296 297 297 298 298 299 300 301 301 300 300 299 299 298 298 297 297 296 296 296 297 300 303 305 307 311 314 315 316 317 318 320 321 323 326 328 329 329 331 331 330 332 333 333 334 335 335 335 335 335 336 336 338 338 337
252 254 256 258 261 264 266 266 267 269 270 271 273 275 277 279 282 284 286 288 289 290 291 292 293 293 293 294 294 295 296 296 297 298 299 299 300 301 300 299 298 298 297 297 297 296 295 294 294 296 299 304 306 308 310 313 314 314 315 316 317 319 321 323 326 327 328 329 330 330 331 333 333 333 334 334 334 334 334 335 335 335 336 337 336
252 254 255 257 261 263 265 267 268 269 271 272 274 276 279 281 284 286 288 289 290 291 291 292 293 293 293 293 294 295 295 296 297 298 299 299 300 300 299 298 297 296 296 295 295 294 292 293 295 298 302 305 306 308 311 312 312 312 313 315 317 318 320 322 325 326 327 329 330 330 332 334 333 333 333 333 333 333 334 334 335 334 335 336 336
251 253 254 257 260 263 265 268 269 270 272 274 276 278 281 284 286 288 288 289 290 291 291 291 292 292 292 292 293 294 295 296 297 298 299 299 300 299 298 297 296 295 295 294 293 293 294 295 298 301 303 304 305 307 309 309 310 311 314 316 316 317 319 323 325 325 327 329 330 332 333 333 332 332 333 332 332 332 333 334 335 334 334 335 336
252 253 255 258 261 263 265 267 268 271 274 276 278 280 283 285 287 288 288 289 290 290 291 291 291 292 292 293 294 295 295 296 297 298 298 299 299 298 297 296 295 295 294 293 293 294 296 297 299 300 301 303 305 307 308 308 310 313 315 315 314 316 320 324 324 325 327 330 331 332 332 331 331 331 331 332 332 332 332 333 334 334 334 335 335
253 255 256 258 260 263 266 268 269 272 275 277 280 282 284 287 288 289 289 290 290 291 291 291 292 292 292 293 294 294 295 296 297 297 298 298 297 297 296 295 295 295 295 294 295 295 296 296 296 297 299 303 307 308 309 310 313 314 314 313 314 318 322 323 324 326 329 330 331 331 330 330 330 330 330 331 331 331 331 332 333 333 334 335 334
254 255 255 257 261 265 269 270 271 273 276 278 281 283 286 289 290 290 291 291 291 291 291 291 292 292 292 293 293 294 295 295 296 296 296 296 296 295 295 295 295 296 296 296 295 295 296 296 296 297 300 305 308 309 310 313 314 314 314 314 315 319 322 323 325 328 329 330 329 329 328 328 328 329 329 329 330 330 330 331 332 333 334 334 333
254 254 254 258 265 268 270 270 271 275 280 282 284 286 289 291 292 292 292 292 291 291 291 291 292 292 292 293 294 294 295 294 294 294 295 295 295 295 295 295 295 296 297 296 296 296 297 298 298 299 303 306 308 308 310 313 314 315 316 316 317 320 324 325 327 328 328 327 327 326 327 327 327 328 328 328 329 329 329 331 332 332 333 333 332
254 252 253 262 267 268 267 266 271 278 284 287 288 289 291 293 294 293 293 292 292 292 292 292 293 293 293 294 294 294 294 293 293 294 295 295 295 295 294 294 295 296 297 296 296 297 299 300 301 302 304 305 307 307 310 313 316 316 317 318 319 321 325 326 326 325 325 324 324 324 325 326 326 326 327 327 328 328 329 330 331 331 332 332 331
252 251 255 263 267 266 265 267 273 279 284 288 289 289 291 294 295 294 293 293 293 293 293 294 295 295 295 295 294 294 294 294 294 295 295 294 294 294 294 294 296 296 296 296 296 298 301 303 303 302 304 306 308 309 312 315 317 317 318 318 318 320 322 323 323 322 322 322 322 323 324 324 325 325 326 326 326 327 328 329 329 330 331 332 331
252 255 258 262 264 264 265 270 275 279 283 287 288 287 290 294 295 295 295 294 294 294 295 296 297 297 297 296 295 295 295 295 295 295 295 294 293 293 294 295 295 295 296 297 299 301 303 304 303 304 306 309 310 310 312 315 316 317 318 317 317 318 319 320 319 319 319 320 320 321 322 323 324 324 324 325 326 326 327 327 328 328 330 331 331
254 258 258 260 263 265 267 271 275 279 283 285 284 285 290 294 296 297 297 295 295 295 296 298 298 298 297 296 296 297 297 297 296 295 294 293 293 293 293 292 293 295 298 299 301 302 303 304 303 304 306 308 307 308 311 314 315 316 316 315 315 315 316 316 316 317 317 318 319 320 321 322 323 323 323 324 325 325 326 326 327 327 329 331 331
256 258 258 261 264 266 269 272 275 279 282 281 282 285 291 295 298 299 298 296 296 296 298 300 300 298 297 296 296 297 297 296 294 294 293 293 292 291 291 291 292 296 299 299 299 300 301 301 300 301 304 306 305 306 309 312 312 313 313 312 312 312 313 314 314 315 316 316 317 318 319 320 321 322 322 323 323 324 325 325 326 327 328 330 330
257 259 260 263 265 267 270 274 277 279 279 278 281 287 292 296 298 299 297 296 296 297 299 301 300 299 297 297 297 298 297 295 293 293 293 292 291 291 291 293 295 297 298 298 298 299 299 299 300 302 304 305 304 305 307 308 308 309 309 309 310 311 311 312 313 313 314 315 316 317 318 319 320 320 321 322 322 323 324 324 325 326 328 329 329
259 260 262 264 266 268 272 275 277 278 277 278 282 288 292 295 298 298 296 295 295 298 301 301 300 299 298 297 299 299 296 294 294 294 293 292 292 293 294 295 296 297 298 298 298 298 297 298 300 301 302 302 303 303 303 304 305 305 306 307 308 309 310 311 312 312 313 314 315 316 317 318 318 319 320 321 322 323 323 324 324 325 327 328 329
259 261 263 264 266 269 272 274 275 277 278 280 285 289 292 296 300 299 296 295 296 299 302 302 300 300 299 298 299 298 295 294 294 294 294 294 294 294 294 295 295 296 297 297 297 296 297 297 297 298 299 300 300 300 301 301 302 303 305 307 307 308 309 310 311 311 312 314 314 315 315 316 317 318 319 320 321 322 323 323 324 325 326 328 328
257 259 261 264 266 268 270 272 274 277 279 281 284 287 291 295 298 296 292 292 295 298 301 301 300 300 300 299 298 297 295 294 294 293 294 294 294 294 293 294 295 296 296 295 295 295 296 296 297 297 298 298 298 299 300 301 302 304 305 306 307 307 308 309 310 311 312 313 313 314 314 315 317 318 319 319 320 321 322 323 323 324 326 327 327
255 258 261 264 265 266 268 271 273 277 278 280 282 285 288 291 291 289 287 287 291 295 298 299 299 300 299 299 299 298 297 296 295 294 293 293 293 293 293 294 294 294 294 294 294 295 295 296 296 297 297 298 298 299 300 301 303 304 305 305 306 307 308 309 310 311 312 312 313 313 314 315 316 317 318 319 320 321 321 322 323 323 324 325 325
257 260 262 263 263 264 268 271 274 276 277 279 283 286 288 289 289 287 285 286 289 293 295 296 297 298 298 299 299 298 298 297 296 295 294 293 293 293 292 292 293 293 293 293 293 294 294 294 295 295 296 297 297 298 299 301 302 303 304 305 305 306 307 308 309 310 311 312 312 313 314 315 316 316 317 318 319 320 321 321 322 323 323 324 324
261 262 261 261 261 266 271 275 276 276 275 277 281 284 287 289 288 287 286 286 288 290 292 293 295 296 298 299 299 299 299 298 297 295 294 294 293 293 292 293 293 294 294 293 293 293 294 294 295 296 296 297 297 298 299 301 302 303 303 304 305 306 307 308 309 309 310 311 312 313 314 314 315 316 317 318 318 319 320 321 321 321 322 322 323
261 260 258 259 262 268 273 276 274 272 274 277 280 283 287 288 288 287 287 287 287 288 290 292 293 295 297 299 300 300 299 298 297 296 296 296 295 295 294 295 295 295 294 294 294 295 296 296 297 297 297 298 298 299 300 301 301 302 302 303 304 305 306 306 307 308 309 311 312 313 313 314 315 316 317 317 318 318 319 320 320 321 321 321 321
259 258 256 259 265 269 271 271 271 271 274 278 280 283 287 288 286 286 286 286 286 287 288 291 293 295 297 299 300 299 298 297 297 297 297 297 297 296 296 297 297 297 296 297 298 299 300 299 298 298 299 299 300 300 300 300 301 301 301 302 303 303 304 305 306 307 309 310 311 312 313 314 315 316 316 317 317 318 318 319 319 320 320 320 320
259 259 259 262 266 267 267 269 271 272 275 278 281 283 286 286 285 285 284 284 285 286 288 290 293 294 296 298 299 298 297 297 297 298 299 299 299 298 298 299 300 300 300 302 303 303 303 302 301 301 302 302 302 302 302 302 301 301 301 301 301 302 303 304 305 306 308 309 310 311 312 314 315 315 316 316 316 317 318 318 319 319 319 319 319
263 262 263 265 267 269 271 273 273 273 275 278 280 282 284 283 283 282 282 283 284 285 287 290 292 293 294 296 297 296 296 297 298 299 301 302 301 300 300 301 302 303 304 305 305 304 303 302 303 304 305 305 305 304 304 304 304 303 303 302 302 302 303 304 304 306 307 309 310 311 312 313 314 314 315 315 315 316 317 318 318 318 318 319 319
268 265 265 267 268 268 268 268 269 271 275 278 280 282 282 281 280 280 281 282 283 285 288 290 291 292 293 295 296 296 296 297 298 300 302 303 303 302 302 302 304 305 306 306 305 304 303 303 304 306 306 306 306 306 306 306 306 306 305 304 304 304 304 304 305 306 307 308 309 310 312 313 313 313 313 314 315 316 316 317 317 317 317 318 318
270 267 266 267 265 263 260 261 265 272 276 279 281 281 281 279 279 279 280 281 283 285 287 288 289 290 292 294 295 295 295 296 298 300 302 303 302 302 303 303 304 307 307 307 306 305 305 306 307 308 308 307 307 307 307 307 307 306 306 305 305 304 304 304 305 306 307 308 309 310 311 312 312 312 312 313 314 315 315 316 316 316 316 317 317
271 269 267 266 265 263 263 265 269 274 277 279 279 279 278 278 278 279 279 281 283 284 285 286 288 290 292 293 294 294 294 295 297 298 300 300 300 301 302 302 303 306 308 308 308 308 308 309 310 310 310 309 307 306 306 306 306 306 305 305 305 304 304 304 305 305 306 307 308 309 310 311 311 312 312 313 313 314 314 315 315 315 315 315 316
271 268 266 265 266 266 267 270 272 275 276 277 277 277 277 277 277 278 279 281 283 283 283 285 288 290 291 292 293 292 293 294 295 295 297 298 298 300 301 300 302 305 308 308 309 309 310 311 311 311 310 309 307 306 305 305 305 305 305 305 304 304 304 304 304 305 306 307 308 309 309 310 311 311 311 312 313 313 314 314 314 314 314 315 315
271 268 267 267 268 268 270 272 274 275 276 276 276 276 276 276 277 278 280 281 281 281 282 285 288 289 290 291 292 291 292 293 293 293 294 295 296 298 300 300 301 305 307 308 308 309 310 311 311 310 310 308 307 306 305 305 304 304 304 304 303 303 303 303 304 305 306 306 307 308 308 309 310 310 311 312 312 313 313 313 313 314 314 315 314
271 269 269 269 270 270 272 273 274 275 276 276 276 276 276 276 276 278 279 280 280 281 283 285 287 288 290 291 291 292 292 292 291 291 292 293 295 297 299 300 302 304 306 307 308 309 309 310 310 309 309 308 306 306 305 304 304 304 303 303 302 302 303 304 305 305 306 306 307 307 308 309 310 310 311 312 312 312 312 312 313 313 314 314 313
271 269 269 269 270 271 272 273 274 274 274 275 275 274 275 276 277 279 279 279 280 281 283 285 286 288 289 290 291 291 291 291 291 291 291 292 294 297 299 300 301 303 305 305 306 307 308 308 308 308 308 307 306 305 304 304 303 303 303 303 303 303 304 304 305 305 306 306 307 308 309 309 310 310 310 311 311 311 311 311 312 312 313 313 311
270 270 269 269 269 270 270 271 272 273 273 274 274 275 275 276 277 278 279 279 280 282 283 284 286 287 288 290 290 290 291 291 290 290 290 292 294 296 298 299 300 302 303 304 305 306 307 307 307 307 307 306 305 304 304 303 303 303 303 303 303 303 304 304 305 306 306 306 307 308 308 309 309 309 310 310 309 309 309 309 310 311 311 311 310
269 270 269 269 269 268 269 270 271 273 275 275 275 275 276 277 278 278 279 280 281 282 283 284 285 287 288 289 290 290 291 291 290 290 290 292 294 296 297 298 299 301 303 303 304 305 306 307 307 306 306 305 304 304 304 304 304 303 303 303 304 304 304 305 306 306 307 307 307 308 308 308 308 308 308 308 308 308 308 308 308 309 310 310 308
265 266 266 267 267 268 269 271 273 275 276 277 276 276 276 277 278 278 279 280 281 282 284 285 286 287 288 289 289 290 291 290 290 290 291 293 295 296 297 299 300 301 302 303 304 305 306 306 306 305 305 304 304 304 304 304 303 303 304 304 304 305 305 306 306 307 307 307 307 307 307 307 307 307 307 306 306 306 306 305 306 307 308 308 307
259 261 264 266 268 269 271 273 275 276 277 278 278 279 279 280 280 280 281 282 283 284 285 285 286 287 288 289 289 290 290 290 290 291 292 294 295 297 298 299 300 301 302 303 303 304 305 305 305 305 304 304 303 303 303 303 304 304 304 305 305 306 306 306 306 306 306 306 306 306 306 306 306 306 305 305 304 304 303 303 304 305 305 306 306
253 258 264 267 269 271 274 275 277 278 278 279 280 280 280 280 281 283 285 285 285 285 285 285 286 286 287 288 289 290 291 291 291 291 293 295 296 297 297 298 299 300 301 302 303 303 304 304 304 304 304 303 303 303 304 304 304 304 305 305 305 306 306 306 306 306 306 306 306 306 306 306 305 305 304 303 302 301 301 301 302 302 303 303 304
249 258 265 269 272 275 277 279 280 281 281 281 281 281 280 281 283 285 287 287 287 287 286 286 286 287 288 289 290 291 291 291 291 292 293 295 295 296 297 297 298 299 300 301 302 302 302 303 303 303 303 303 303 303 304 304 305 305 305 306 306 306 306 306 307 307 306 306 306 306 306 305 305 304 303 301 299 299 299 299 299 300 300 301 301
251 259 266 271 275 277 279 280 282 283 283 283 283 282 281 282 283 285 286 287 288 288 288 288 289 289 290 290 291 291 291 291 292 293 293 294 295 295 296 296 297 299 300 301 302 302 302 302 303 302 302 302 302 303 303 304 304 305 305 306 306 307 307 307 307 307 307 307 307 307 307 306 305 304 302 300 299 297 297 297 298 298 298 298 299
255 260 265 271 275 278 280 281 282 283 284 285 285 284 283 283 284 285 285 286 287 288 289 289 290 291 291 291 291 291 291 292 292 292 293 294 294 295 295 296 298 299 301 301 302 302 302 302 302 302 302 302 303 303 304 304 305 305 306 307 307 308 308 308 309 309 309 309 308 308 307 306 305 304 302 300 298 297 297 296 296 296 296 297 297
258 262 267 271 275 279 281 283 283 284 285 286 286 286 286 286 286 286 286 286 287 288 289 289 290 290 290 290 290 290 291 291 292 292 293 293 294 294 295 297 298 299 300 300 301 301 301 301 301 302 302 303 304 304 304 305 306 307 308 308 309 309 309 310 310 310 310 310 309 308 307 306 305 303 301 300 298 297 296 296 296 296 296 296 297
265 268 271 274 277 280 282 284 285 285 286 286 287 287 288 288 288 288 288 287 287 288 288 288 288 288 288 288 289 289 290 291 292 292 292 292 293 294 296 297 298 299 299 299 300 300 300 301 301 302 303 303 304 305 305 306 307 308 309 309 310 310 310 310 310 310 310 309 308 308 307 306 305 303 301 299 299 298 297 296 296 296 296 296 297
269 272 275 277 280 282 284 285 285 286 286 287 288 288 289 289 288 288 287 287 287 287 287 287 287 287 287 288 288 289 290 291 291 292 292 293 294 295 296 297 297 297 298 298 299 299 300 300 301 302 303 304 305 305 306 307 308 309 309 309 310 310 310 310 310 310 310 309 309 308 307 306 304 302 301 300 299 298 297 296 296 296 296 297 297
271 273 276 278 281 282 283 284 285 285 286 287 288 288 288 288 287 286 286 286 286 286 286 287 287 287 287 288 289 290 290 291 292 292 293 293 294 295 296 296 296 296 297 298 298 299 300 301 302 302 303 304 305 305 306 308 308 309 309 309 310 310 310 311 312 313 312 311 309 308 307 306 304 303 301 300 299 299 298 297 297 297 297 297 298
273 275 277 279 280 282 283 284 285 286 287 287 288 288 287 286 286 286 286 286 286 287 287 287 287 287 288 289 290 291 291 292 292 292 292 293 293 294 295 295 295 296 297 298 299 300 300 301 301 302 303 304 305 306 307 308 309 308 308 309 310 310 311 313 314 314 313 312 310 309 308 306 305 304 302 301 300 299 298 297 297 297 297 298 298
273 275 277 279 280 282 282 283 284 285 286 286 286 285 285 285 285 285 285 285 286 287 287 288 288 289 289 290 291 291 291 291 292 292 292 293 293 293 294 294 295 296 297 298 299 300 300 301 302 303 304 305 306 307 308 308 308 307 308 309 309 310 312 314 315 315 314 313 312 310 309 307 306 305 304 302 301 300 298 298 297 297 297 297 297
273 275 277 278 279 280 281 282 284 285 285 286 285 285 285 285 285 285 285 285 286 287 288 289 289 289 289 290 290 290 290 291 291 291 292 292 292 293 293 294 295 296 297 298 299 300 300 301 302 303 304 305 306 307 308 308 307 306 306 307 308 310 312 313 314 315 316 316 314 313 311 309 308 306 305 304 302 300 299 298 297 297 297 297 296
272 274 276 277 278 278 280 281 283 284 285 286 286 286 286 286 286 286 286 286 287 288 288 288 288 288 288 288 288 288 289 289 290 290 291 291 292 293 294 295 296 297 298 298 299 300 300 301 302 303 304 306 306 307 307 306 305 305 305 307 308 309 311 313 314 316 318 318 317 315 313 311 309 308 307 305 304 303 301 300 299 298 298 297 297
269 272 273 275 276 277 279 281 283 284 285 286 286 286 286 286 286 286 286 287 287 287 287 286 286 286 286 286 287 287 288 288 289 290 291 292 293 294 294 295 296 297 297 298 299 300 301 302 303 304 305 306 307 307 306 305 304 304 305 306 307 309 310 312 314 316 317 317 317 317 316 314 312 311 309 308 307 305 304 303 302 301 300 299 298
269 271 273 274 276 278 280 281 283 284 285 285 285 286 286 286 286 286 286 286 286 286 286 286 286 286 286 286 287 287 288 289 290 291 291 292 293 294 295 296 296 297 298 299 300 301 302 303 303 304 305 306 306 306 306 305 304 305 305 306 307 308 310 311 312 314 314 315 315 316 315 315 314 313 312 311 309 308 306 305 304 303 302 302 301
270 272 274 276 277 279 281 282 283 283 284 284 285 286 286 286 286 286 286 286 286 286 286 286 286 286 287 287 288 289 289 290 291 291 292 293 294 295 296 296 297 298 298 300 301 301 302 303 303 304 305 305 306 305 305 304 304 304 305 306 306 307 308 309 310 310 311 312 312 313 313 312 312 312 311 311 310 309 308 307 306 305 304 303 302
Height
10684 10686 10690 10692 10694 10695 10695 10695 10695 10696 10696 10695 10695 10695 10694 10693 10693 10692 10691 10691 10690 10689 10687 10685 10683 10682 10681 10679 10678 10676 10675 10673 10671 10669 10667 10665 10663 10661 10659 10657 10654 10651 10649 10647 10645 10643 10640 10638 10636 10634 10632 10629 10628 10626 10624 10620 10617 10613 10610 10606 10602 10598 10594 10590 10586 10581 10576 10571 10566 10560 10554 10547 10541 10534 10529 10523 10517 10510 10504 10498 10491 10486 10480 10474 10468
10681 10684 10687 10688 10689 10689 10689 10690 10691 10691 10691 10690 10690 10690 10690 10689 10689 10688 10687 10686 10685 10684 10682 10680 10679 10677 10676 10674 10673 10672 10670 10668 10666 10664 10662 10660 10658 10656 10654 10652 10649 10647 10645 10643 10640 10638 10636 10633 10631 10629 10627 10625 10623 10621 10619 10616 10612 10609 10605 10602 10598 10594 10590 10585 10581 10576 10571 10566 10561 10556 10550 10543 10536 10530 10524 10518 10512 10505 10498 10492 10486 10480 10475 10469 10463
10678 10681 10683 10684 10684 10685 10685 10685 10686 10686 10686 10685 10685 10685 10685 10685 10685 10684 10683 10682 10680 10679 10677 10676 10674 10673 10671 10670 10668 10667 10665 10663 10661 10660 10658 10656 10654 10652 10650 10647 10645 10643 10641 10638 10636 10634 10631 10629 10626 10624 10623 10621 10618 10616 10614 10611 10608 10605 10601 10598 10594 10589 10585 10581 10576 10572 10567 10562 10557 10551 10546 10539 10532 10525 10519 10513 10508 10502 10495 10487 10480 10475 10470 10465 10458
10675 10677 10678 10679 10681 10681 10680 10681 10681 10681 10681 10681 10681 10681 10681 10681 10681 10680 10679 10677 10675 10674 10673 10671 10670 10668 10666 10665 10664 10662 10661 10659 10657 10655 10653 10651 10649 10648 10646 10643 10641 10639 10637 10634 10631 10629 10627 10624 10622 10620 10619 10617 10614 10611 10609 10607 10603 10600 10597 10593 10589 10585 10580 10576 10571 10567 10563 10558 10552 10546 10540 10534 10528 10521 10514 10507 10502 10498 10492 10485 10477 10468 10463 10459 10454
10672 10673 10674 10676 10677 10676 10676 10677 10677 10676 10676 10676 10676 10676 10676 10677 10677 10676 10674 10672 10671 10669 10668 10667 10665 10664 10662 10660 10659 10658 10656 10654 10653 10651 10648 10646 10645 10643 10641 10639 10637 10635 10632 10629 10627 10625 10622 10620 10618 10616 10614 10613 10610 10607 10605 10603 10599 10595 10592 10588 10584 10580 10576 10571 10566 10562 10557 10552 10546 10540 10533 10528 10523 10518 10511 10503 10496 10490 10485 10480 10474 10465 10457 10451 10447
10668 10669 10670 10672 10673 10672 10672 10673 10672 10672 10672 10672 10672 10672 10672 10673 10672 10671 10669 10668 10666 10664 10663 10662 10660 10659 10657 10655 10654 10653 10651 10650 10648 10646 10644 10642 10641 10639 10637 10634 10632 10630 10628 10625 10622 10621 10619 10616 10614 10611 10609 10608 10605 10603 10601 10598 10594 10590 10587 10583 10579 10575 10571 10566 10561 10556 10551 10545 10539 10534 10528 10524 10519 10514 10509 10502 10494 10486 10479 10473 10469 10463 10455 10445 10438
10663 10664 10666 10668 10668 10668 10668 10668 10668 10668 10668 10668 10668 10668 10668 10668 10667 10666 10664 10663 10661 10659 10658 10657 10655 10654 10652 10651 10649 10648 10646 10645 10644 10642 10640 10638 10636 10634 10632 10630 10628 10626 10623 10621 10618 10617 10615 10612 10610 10607 10604 10603 10601 10598 10595 10592 10589 10585 10581 10577 10573 10569 10565 10561 10556 10551 10545 10539 10533 10529 10524 10519 10515 10509 10504 10498 10492 10485 10478 10471 10464 10458 10451 10443 10434
10658 10659 10662 10664 10664 10664 10664 10664 10664 10664 10664 10664 10664 10664 10664 10663 10662 10661 10659 10658 10656 10655 10653 10652 10650 10649 10647 10646 10645 10643 10642 10640 10639 10637 10635 10633 10631 10629 10628 10625 10623 10621 10619 10617 10614 10613 10611 10608 10605 10602 10600 10598 10596 10592 10589 10586 10583 10579 10575 10571 10567 10564 10560 10555 10550 10544 10539 10533 10529 10525 10520 10515 10510 10505 10499 10493 10488 10482 10476 10470 10462 10454 10447 10441 10434
10654 10655 10659 10660 10660 10660 10660 10659 10660 10660 10660 10660 10661 10661 10660 10658 10657 10656 10654 10653 10651 10650 10648 10647 10645 10644 10642 10641 10640 10639 10637 10635 10634 10632 10631 10629 10627 10625 10623 10621 10619 10617 10615 10612 10610 10608 10606 10603 10600 10597 10596 10594 10590 10587 10584 10581 10578 10573 10569 10565 10561 10557 10553 10548 10543 10538 10533 10529 10525 10521 10516 10511 10506 10500 10495 10489 10484 10477 10471 10466 10460 10453 10445 10438 10431
10650 10652 10655 10656 10655 10655 10655 10655 10656 10656 10656 10656 10657 10656 10655 10654 10653 10651 10649 10648 10646 10645 10643 10642 10640 10639 10637 10636 10635 10634 10632 10630 10629 10628 10627 10625 10623 10620 10618 10615 10614 10612 10610 10607 10605 10603 10602 10599 10595 10592 10590 10588 10585 10582 10579 10576 10572 10567 10563 10558 10554 10550 10546 10542 10537 10532 10529 10525 10521 10517 10513 10508 10502 10496 10491 10485 10479 10473 10467 10461 10456 10451 10443 10435 10426
10646 10648 10651 10651 10651 10651 10650 10651 10652 10651 10651 10652 10652 10651 10650 10649 10648 10646 10644 10643 10642 10641 10639 10637 10636 10634 10633 10631 10630 10629 10628 10626 10625 10624 10622 10621 10618 10615 10613 10611 10609 10607 10605 10602 10600 10598 10597 10595 10591 10587 10585 10582 10578 10575 10573 10570 10566 10562 10558 10553 10549 10544 10540 10537 10532 10528 10524 10521 10517 10513 10508 10504 10498 10492 10486 10481 10475 10469 10463 10458 10453 10448 10442 10434 10426
10642 10644 10646 10646 10646 10646 10646 10647 10647 10647 10647 10647 10647 10646 10645 10645 10643 10642 10640 10639 10638 10636 10634 10633 10631 10630 10628 10626 10625 10624 10623 10622 10621 10619 10618 10616 10613 10611 10608 10606 10604 10602 10600 10598 10595 10593 10591 10589 10585 10581 10579 10576 10571 10567 10566 10564 10560 10556 10553 10548 10544 10540 10536 10532 10528 10524 10520 10516 10512 10508 10503 10499 10494 10489 10483 10476 10470 10465 10459 10454 10449 10444 10439 10433 10425
10638 10640 10641 10642 10642 10641 10642 10643 10643 10643 10643 10642 10641 10640 10640 10640 10639 10637 10636 10634 10633 10632 10630 10629 10627 10625 10623 10621 10620 10620 10619 10618 10616 10614 10613 10611 10609 10607 10604 10602 10600 10598 10596 10593 10590 10587 10585 10583 10580 10576 10574 10571 10566 10562 10560 10558 10554 10551 10548 10544 10540 10536 10532 10528 10524 10520 10516 10512 10508 10503 10499 10494 10490 10485 10479 10473 10467 10461 10455 10449 10443 10438 10434 10428 10421
10634 10636 10637 10637 10637 10636 10637 10638 10639 10639 10638 10637 10636 10635 10635 10635 10634 10633 10632 10630 10628 10627 10626 10624 10623 10621 10619 10617 10616 10615 10615 10613 10611 10609 10608 10607 10605 10602 10600 10597 10596 10594 10593 10590 10586 10583 10580 10578 10575 10573 10571 10567 10562 10557 10555 10552 10549 10546 10543 10540 10536 10533 10529 10524 10519 10516 10512 10508 10503 10499 10495 10490 10485 10480 10475 10470 10464 10458 10452 10445 10438 10432 10427 10423 10417
10630 10631 10632 10632 10632 10631 10632 10633 10634 10634 10633 10632 10630 10630 10630 10629 10628 10628 10627 10625 10624 10623 10622 10620 10618 10616 10615 10613 10612 10611 10610 10609 10607 10605 10604 10602 10600 10597 10595 10593 10591 10590 10588 10585 10582 10579 10575 10573 10570 10568 10566 10562 10558 10554 10550 10548 10545 10542 10539 10536 10532 10528 10524 10519 10514 10511 10507 10503 10498 10494 10490 10486 10481 10476 10471 10466 10460 10455 10449 10442 10435 10429 10422 10417 10412
10625 10626 10627 10628 10627 10627 10628 10628 10629 10628 10628 10627 10626 10625 10624 10624 10623 10623 10622 10621 10620 10618 10617 10616 10614 10612 10610 10609 10608 10607 10605 10604 10602 10601 10598 10597 10594 10592 10589 10588 10586 10584 10581 10579 10577 10574 10571 10569 10566 10564 10561 10558 10555 10551 10547 10544 10542 10538 10535 10532 10527 10523 10519 10515 10510 10505 10501 10497 10493 10488 10485 10481 10477 10472 10467 10461 10455 10450 10444 10438 10432 10426 10419 10413 10407
10620 10621 10622 10623 10622 10623 10623 10623 10623 10623 10623 10622 10621 10620 10619 10619 10618 10618 10617 10616 10615 10614 10613 10611 10609 10607 10606 10605 10604 10602 10600 10599 10598 10596 10594 10592 10590 10587 10585 10582 10580 10578 10576 10573 10570 10568 10566 10565 10562 10560 10557 10554 10551 10547 10543 10539 10537 10533 10530 10526 10522 10517 10514 10510 10505 10500 10496 10492 10487 10483 10479 10475 10471 10467 10462 10457 10451 10445 10439 10433 10426 10420 10415 10409 10403
10615 10616 10617 10618 10618 10618 10619 10618 10618 10618 10618 10617 10616 10615 10614 10614 10614 10613 10612 10612 10610 10609 10608 10606 10604 10602 10601 10600 10599 10597 10595 10594 10593 10592 10590 10588 10585 10583 10580 10578 10575 10573 10570 10566 10564 10562 10560 10559 10557 10555 10553 10549 10546 10542 10537 10533 10530 10527 10524 10520 10516 10511 10508 10504 10500 10496 10491 10486 10482 10477 10473 10469 10465 10461 10457 10452 10447 10441 10435 10428 10421 10414 10410 10406 10400
10610 10611 10612 10613 10614 10614 10614 10614 10613 10613 10613 10612 10611 10611 10611 10610 10609 10608 10607 10606 10606 10604 10603 10601 10599 10597 10596 10595 10593 10591 10589 10588 10588 10587 10586 10583 10581 10578 10575 10572 10570 10568 10564 10560 10557 10555 10553 10552 10550 10548 10546 10543 10539 10535 10531 10527 10524 10521 10517 10513 10509 10505 10501 10497 10493 10489 10485 10480 10476 10471 10467 10462 10458 10454 10450 10446 10441 10436 10430 10424 10417 10410 10404 10400 10397
10606 10607 10608 10608 10609 10609 10609 10609 10609 10609 10608 10607 10606 10606 10606 10605 10604 10603 10602 10601 10601 10599 10598 10597 10594 10592 10591 10589 10588 10586 10584 10583 10582 10582 10581 10578 10576 10573 10570 10567 10564 10562 10558 10554 10551 10548 10546 10545 10543 10542 10539 10536 10532 10529 10525 10521 10518 10514 10510 10506 10502 10499 10495 10491 10486 10482 10478 10474 10469 10465 10460 10456 10451 10447 10443 10439 10435 10430 10425 10420 10414 10407 10401 10395 10391
10601 10602 10603 10604 10604 10605 10605 10605 10605 10604 10602 10602 10602 10601 10600 10600 10598 10597 10596 10596 10595 10594 10593 10591 10589 10587 10586 10584 10583 10581 10579 10577 10576 10575 10574 10573 10571 10568 10565 10561 10559 10557 10553 10548 10545 10542 10540 10538 10537 10535 10532 10528 10524 10522 10519 10515 10512 10508 10504 10500 10496 10492 10488 10484 10479 10475 10471 10467 10463 10458 10454 10449 10445 10440 10436 10432 10428 10424 10419 10415 10409 10403 10397 10391 10385
10596 10597 10598 10598 10599 10601 10601 10601 10601 10599 10597 10597 10597 10596 10595 10594 10592 10591 10591 10590 10589 10588 10587 10586 10585 10583 10581 10579 10578 10576 10574 10572 10571 10569 10568 10567 10565 10562 10559 10556 10554 10551 10547 10542 10539 10536 10534 10532 10530 10527 10525 10521 10517 10515 10512 10509 10505 10501 10497 10493 10489 10485 10481 10477 10473 10468 10464 10461 10456 10451 10447 10442 10437 10433 10429 10424 10420 10416 10412 10408 10403 10397 10392 10387 10381
10590 10591 10592 10592 10594 10598 10599 10596 10594 10593 10591 10591 10591 10590 10589 10588 10586 10585 10584 10584 10583 10582 10581 10581 10580 10578 10576 10574 10572 10570 10568 10566 10565 10564 10563 10561 10559 10556 10553 10551 10549 10545 10541 10538 10534 10531 10528 10525 10523 10520 10518 10515 10511 10507 10505 10502 10498 10494 10490 10486 10482 10477 10474 10470 10465 10461 10458 10454 10449 10444 10440 10435 10430 10426 10421 10416 10412 10408 10404 10400 10395 10390 10385 10380 10376
10583 10585 10586 10587 10590 10594 10594 10590 10588 10587 10586 10585 10585 10584 10583 10582 10580 10579 10578 10577 10577 10576 10576 10575 10574 10573 10571 10569 10567 10565 10563 10561 10560 10558 10557 10556 10554 10551 10548 10545 10543 10540 10536 10533 10530 10526 10521 10518 10515 10514 10512 10508 10505 10501 10497 10494 10490 10486 10483 10478 10474 10470 10466 10462 10458 10454 10451 10447 10442 10438 10433 10428 10423 10418 10414 10409 10404 10400 10396 10391 10386 10381 10377 10373 10368
10577 10578 10580 10583 10586 10588 10586 10583 10581 10580 10580 10579 10579 10578 10577 10575 10574 10573 10572 10572 10571 10571 10570 10570 10569 10567 10566 10563 10561 10559 10557 10555 10554 10553 10551 10550 10547 10544 10542 10539 10537 10534 10531 10528 10524 10520 10515 10511 10508 10507 10505 10502 10498 10494 10490 10487 10483 10479 10475 10471 10466 10462 10458 10455 10451 10447 10444 10440 10435 10431 10427 10422 10417 10412 10407 10402 10398 10393 10388 10384 10378 10373 10369 10364 10360
10572 10572 10574 10578 10583 10583 10580 10576 10574 10574 10573 10573 10572 10571 10570 10568 10567 10566 10566 10566 10565 10565 10565 10564 10563 10562 10560 10557 10555 10553 10552 10550 10549 10548 10546 10543 10540 10537 10535 10532 10530 10528 10525 10522 10518 10514 10509 10504 10502 10500 10498 10495 10491 10487 10483 10479 10474 10471 10467 10463 10459 10455 10451 10447 10444 10440 10436 10432 10427 10423 10420 10416 10411 10406 10401 10396 10391 10386 10381 10376 10371 10366 10361 10357 10353
10566 10566 10567 10571 10575 10575 10572 10570 10569 10568 10567 10566 10565 10564 10563 10561 10560 10560 10560 10560 10560 10559 10559 10557 10556 10556 10554 10551 10548 10547 10546 10544 10543 10542 10540 10537 10533 10530 10527 10525 10523 10521 10518 10515 10512 10507 10502 10498 10495 10493 10490 10487 10483 10480 10476 10471 10466 10462 10459 10455 10452 10448 10444 10440 10436 10433 10429 10424 10419 10415 10412 10409 10404 10400 10395 10389 10385 10380 10375 10370 10365 10359 10354 10350 10346
10561 10561 10561 10562 10564 10565 10564 10563 10562 10561 10560 10559 10558 10557 10556 10555 10554 10554 10553 10554 10554 10553 10552 10551 10550 10549 10547 10545 10542 10541 10539 10538 10538 10536 10533 10530 10527 10523 10521 10518 10516 10514 10511 10508 10504 10500 10495 10491 10488 10486 10483 10479 10476 10473 10469 10465 10460 10455 10451 10448 10444 10440 10436 10433 10429 10426 10422 10417 10412 10408 10405 10401 10397 10392 10387 10382 10378 10373 10368 10363 10358 10353 10349 10344 10340
10555 10555 10554 10554 10555 10556 10556 10555 10554 10554 10553 10552 10551 10550 10549 10548 10547 10547 10547 10548 10548 10547 10545 10544 10543 10541 10540 10538 10536 10534 10533 10532 10531 10530 10527 10524 10520 10517 10515 10512 10509 10507 10504 10501 10497 10493 10489 10485 10482 10478 10475 10472 10468 10465 10461 10458 10454 10448 10444 10440 10437 10433 10430 10426 10422 10418 10415 10410 10405 10401 10397 10393 10389 10384 10379 10375 10370 10366 10361 10356 10351 10347 10343 10338 10333
10549 10548 10547 10547 10548 10548 10547 10547 10546 10546 10545 10545 10544 10543 10542 10541 10541 10540 10541 10541 10541 10540 10539 10538 10537 10535 10533 10531 10530 10528 10527 10526 10525 10523 10520 10517 10513 10510 10508 10506 10503 10500 10497 10494 10490 10486 10482 10478 10474 10471 10467 10463 10460 10457 10453 10449 10446 10441 10437 10433 10429 10425 10422 10419 10415 10411 10406 10402 10398 10394 10390 10386 10381 10376 10371 10366 10361 10357 10352 10348 10344 10340 10335 10331 10326
10543 10542 10541 10541 10540 10540 10539 10539 10539 10539 10539 10538 10537 10536 10535 10534 10534 10534 10534 10535 10534 10533 10532 10532 10530 10528 10526 10525 10523 10522 10521 10519 10518 10516 10513 10509 10506 10503 10501 10498 10495 10492 10490 10487 10484 10480 10476 10472 10467 10463 10460 10455 10452 10448 10445 10441 10437 10433 10429 10425 10421 10418 10415 10411 10408 10403 10398 10393 10390 10386 10382 10378 10373 10368 10363 10358 10353 10347 10343 10339 10336 10332 10328 10324 10319
10536 10536 10535 10535 10534 10533 10532 10533 10533 10532 10532 10531 10531 10530 10529 10528 10528 10528 10528 10528 10527 10526 10526 10525 10524 10521 10520 10518 10516 10515 10513 10512 10510 10508 10505 10502 10499 10496 10493 10491 10488 10485 10482 10480 10476 10473 10469 10465 10460 10456 10452 10447 10443 10440 10436 10432 10429 10425 10421 10417 10413 10410 10406 10403 10400 10396 10391 10385 10381 10377 10373 10369 10365 10359 10354 10350 10345 10339 10335 10331 10327 10324 10321 10317 10313
10530 10529 10529 10528 10527 10526 10526 10526 10526 10525 10525 10524 10524 10523 10522 10522 10521 10521 10521 10521 10520 10520 10519 10518 10517 10515 10513 10512 10510 10507 10505 10504 10502 10500 10498 10495 10492 10489 10486 10484 10481 10478 10475 10472 10469 10465 10462 10457 10453 10448 10444 10439 10435 10432 10428 10424 10421 10417 10413 10409 10405 10401 10398 10395 10391 10387 10382 10377 10373 10368 10364 10360 10355 10350 10346 10341 10336 10331 10327 10323 10319 10317 10314 10311 10307
10523 10522 10522 10521 10520 10520 10519 10519 10519 10519 10518 10517 10517 10516 10515 10515 10514 10513 10513 10514 10514 10513 10512 10511 10510 10508 10506 10504 10502 10500 10497 10495 10493 10492 10490 10488 10485 10482 10479 10476 10474 10471 10468 10464 10461 10457 10454 10449 10445 10440 10435 10431 10427 10423 10420 10416 10412 10408 10405 10401 10396 10393 10389 10386 10382 10378 10373 10368 10363 10359 10355 10350 10346 10341 10337 10332 10327 10323 10319 10315 10312 10310 10307 10305 10301
10516 10515 10514 10513 10513 10513 10513 10513 10513 10513 10512 10511 10510 10509 10509 10508 10507 10506 10506 10507 10507 10506 10505 10504 10502 10500 10498 10497 10495 10492 10489 10487 10484 10483 10481 10480 10477 10474 10470 10467 10465 10462 10459 10456 10452 10449 10445 10441 10436 10431 10427 10422 10418 10415 10411 10407 10404 10400 10396 10392 10388 10383 10379 10376 10372 10368 10363 10358 10354 10350 10345 10341 10336 10332 10328 10323 10318 10315 10311 10308 10305 10303 10300 10298 10296
10508 10507 10507 10507 10506 10506 10506 10506 10506 10506 10505 10504 10504 10503 10502 10500 10498 10498 10498 10499 10499 10498 10497 10496 10494 10492 10490 10489 10487 10484 10481 10479 10477 10474 10473 10471 10468 10465 10461 10457 10455 10453 10450 10447 10444 10440 10436 10431 10427 10423 10418 10414 10410 10406 10403 10399 10395 10391 10387 10384 10379 10374 10370 10366 10362 10358 10353 10348 10343 10339 10335 10331 10326 10323 10319 10315 10310 10306 10303 10300 10298 10296 10294 10291 10289
10501 10501 10500 10500 10500 10499 10499 10499 10499 10499 10499 10498 10497 10497 10496 10492 10489 10489 10490 10491 10491 10491 10490 10488 10486 10484 10482 10480 10478 10476 10473 10471 10468 10466 10464 10462 10459 10456 10452 10449 10446 10444 10441 10438 10435 10431 10426 10422 10418 10414 10409 10405 10401 10398 10394 10390 10386 10382 10378 10374 10370 10365 10361 10356 10352 10348 10342 10337 10332 10328 10324 10320 10316 10313 10310 10306 10301 10298 10296 10293 10291 10289 10287 10285 10283
10493 10493 10492 10492 10492 10492 10492 10492 10492 10492 10492 10491 10491 10490 10489 10485 10482 10481 10482 10482 10481 10481 10480 10479 10477 10476 10474 10472 10470 10468 10465 10463 10460 10457 10455 10453 10450 10447 10444 10441 10438 10435 10433 10430 10427 10422 10418 10414 10410 10406 10401 10397 10393 10390 10386 10381 10377 10373 10369 10364 10360 10355 10350 10346 10341 10337 10331 10326 10321 10317 10314 10310 10306 10303 10301 10297 10293 10290 10288 10286 10284 10282 10280 10278 10276
10484 10484 10484 10485 10485 10484 10485 10485 10485 10485 10485 10485 10484 10483 10482 10479 10476 10475 10473 10472 10471 10470 10469 10468 10467 10466 10465 10463 10461 10459 10457 10454 10451 10449 10447 10444 10442 10439 10436 10433 10430 10426 10423 10419 10415 10411 10407 10404 10401 10397 10393 10389 10386 10382 10378 10374 10369 10364 10360 10355 10350 10345 10340 10335 10330 10326 10320 10315 10311 10306 10303 10299 10296 10293 10291 10288 10285 10282 10280 10278 10277 10275 10273 10271 10270
10476 10476 10477 10477 10477 10477 10477 10477 10477 10477 10478 10477 10477 10476 10475 10473 10471 10469 10467 10465 10463 10462 10460 10459 10458 10457 10455 10454 10452 10450 10447 10445 10442 10440 10438 10435 10433 10430 10427 10424 10421 10418 10413 10409 10405 10401 10397 10394 10391 10388 10384 10381 10377 10373 10369 10365 10360 10355 10351 10346 10340 10334 10328 10323 10318 10314 10309 10305 10300 10296 10293 10290 10287 10284 10282 10279 10277 10275 10273 10271 10270 10268 10266 10264 10263
10468 10469 10469 10469 10469 10468 10468 10468 10469 10469 10469 10469 10469 10468 10467 10465 10464 10462 10460 10458 10456 10455 10453 10451 10450 10448 10447 10445 10443 10441 10439 10436 10434 10431 10429 10426 10423 10421 10418 10415 10412 10408 10404 10399 10395 10392 10388 10384 10381 10378 10375 10372 10368 10364 10359 10355 10350 10345 10340 10335 10330 10324 10317 10312 10307 10303 10299 10296 10291 10288 10284 10282 10279 10277 10274 10272 10270 10269 10267 10265 10263 10261 10260 10258 10257
10461 10461 10460 10460 10460 10459 10459 10459 10460 10460 10460 10461 10461 10460 10459 10458 10455 10454 10452 10450 10448 10447 10445 10444 10442 10441 10439 10437 10436 10434 10432 10429 10427 10423 10420 10417 10414 10411 10409 10405 10402 10398 10394 10390 10387 10383 10379 10376 10372 10369 10366 10362 10358 10354 10349 10345 10340 10335 10330 10325 10320 10315 10309 10304 10300 10296 10292 10288 10284 10280 10277 10274 10272 10270 10267 10265 10264 10262 10260 10258 10256 10255 10253 10252 10251
10453 10452 10452 10451 10451 10451 10450 10450 10451 10451 10452 10452 10452 10452 10451 10449 10447 10445 10444 10442 10440 10439 10437 10436 10434 10433 10431 10429 10428 10426 10424 10421 10418 10415 10412 10408 10405 10402 10399 10396 10391 10387 10384 10382 10379 10375 10372 10368 10364 10360 10357 10353 10349 10345 10340 10336 10331 10326 10321 10316 10311 10306 10302 10298 10293 10289 10285 10281 10277 10273 10270 10267 10265 10263 10261 10259 10257 10256 10254 10252 10251 10249 10247 10246 10245
10445 10444 10444 10443 10443 10442 10442 10443 10443 10444 10444 10445 10444 10443 10442 10441 10439 10437 10435 10433 10432 10430 10429 10427 10425 10423 10422 10421 10419 10418 10415 10412 10409 10406 10402 10399 10396 10393 10390 10386 10382 10378 10375 10372 10370 10367 10363 10360 10356 10352 10348 10345 10341 10336 10332 10328 10323 10318 10312 10308 10303 10299 10295 10291 10287 10282 10278 10274 10271 10267 10264 10261 10259 10257 10255 10253 10251 10250 10248 10246 10245 10243 10242 10240 10239
10436 10436 10436 10435 10435 10435 10434 10435 10435 10436 10436 10436 10435 10434 10433 10431 10430 10428 10427 10425 10424 10422 10421 10419 10416 10414 10412 10411 10410 10408 10405 10402 10399 10396 10392 10389 10387 10384 10381 10378 10373 10370 10366 10363 10361 10358 10354 10351 10347 10343 10340 10336 10332 10328 10324 10319 10314 10309 10304 10300 10296 10293 10289 10285 10281 10276 10272 10268 10265 10261 10258 10256 10253 10251 10249 10248 10246 10244 10242 10241 10239 10238 10237 10235 10234
10428 10428 10428 10427 10427 10427 10426 10427 10427 10428 10428 10427 10426 10424 10423 10422 10420 10419 10418 10417 10416 10414 10412 10410 10407 10404 10402 10400 10398 10396 10393 10390 10387 10384 10381 10379 10377 10375 10372 10369 10365 10362 10358 10355 10352 10348 10345 10341 10338 10334 10330 10327 10323 10319 10315 10311 10305 10300 10296 10292 10289 10286 10283 10279 10275 10271 10267 10263 10259 10256 10253 10250 10248 10246 10244 10242 10240 10239 10237 10235 10234 10232 10231 10230 10228
10421 10420 10420 10419 10419 10418 10419 10419 10420 10420 10419 10418 10416 10414 10413 10412 10410 10409 10408 10407 10406 10405 10403 10400 10396 10394 10392 10390 10387 10384 10382 10379 10377 10374 10371 10369 10367 10365 10363 10360 10357 10354 10351 10347 10344 10340 10336 10332 10328 10325 10321 10318 10315 10311 10306 10302 10297 10293 10289 10286 10283 10279 10276 10273 10270 10266 10262 10258 10254 10251 10248 10245 10242 10240 10239 10237 10235 10234 10232 10230 10228 10227 10226 10224 10223
10414 10413 10411 10410 10410 10410 10411 10412 10413 10412 10410 10408 10405 10404 10402 10401 10400 10399 10398 10398 10396 10395 10392 10389 10387 10385 10383 10381 10378 10376 10373 10371 10368 10366 10363 10360 10358 10356 10354 10351 10349 10346 10342 10339 10335 10332 10328 10324 10320 10316 10313 10310 10306 10302 10298 10294 10290 10286 10283 10280 10277 10274 10270 10267 10264 10260 10256 10253 10250 10246 10243 10240 10238 10235 10233 10232 10230 10228 10226 10225 10223 10221 10220 10218 10217
10407 10405 10403 10402 10402 10402 10403 10404 10404 10403 10400 10398 10395 10394 10392 10391 10390 10390 10389 10388 10386 10385 10383 10380 10378 10376 10374 10373 10371 10368 10366 10364 10361 10358 10355 10352 10349 10347 10345 10343 10340 10337 10333 10330 10326 10323 10319 10315 10311 10308 10304 10301 10297 10293 10290 10286 10283 10280 10277 10274 10270 10267 10264 10261 10258 10254 10251 10248 10245 10242 10239 10236 10233 10231 10229 10227 10225 10223 10221 10219 10217 10216 10214 10212 10211
10401 10399 10397 10395 10394 10394 10393 10393 10393 10393 10391 10389 10386 10385 10383 10382 10381 10380 10379 10377 10376 10375 10373 10371 10368 10367 10366 10364 10363 10360 10358 10356 10354 10350 10347 10343 10340 10338 10335 10333 10330 10327 10324 10320 10317 10313 10310 10306 10302 10298 10295 10292 10288 10284 10281 10278 10275 10273 10270 10267 10264 10261 10257 10254 10251 10248 10246 10243 10240 10237 10234 10232 10229 10226 10224 10222 10220 10218 10216 10214 10212 10210 10208 10207 10205
10393 10391 10390 10388 10387 10385 10384 10383 10383 10382 10382 10380 10378 10377 10375 10373 10372 10371 10369 10368 10367 10366 10364 10362 10360 10358 10357 10356 10354 10352 10350 10347 10345 10342 10339 10335 10331 10328 10326 10323 10320 10317 10313 10310 10307 10303 10300 10297 10294 10290 10286 10283 10280 10277 10273 10271 10268 10266 10263 10260 10257 10254 10251 10248 10245 10243 10240 10237 10235 10232 10229 10226 10224 10221 10219 10217 10215 10213 10211 10209 10207 10206 10204 10202 10200